Weather History for Hayward, WI

Change the Weather History Date:

Wednesday, January 1, 2014

  Actual Average Record
Temperature  
Mean Temperature -22 °C -  
Max Temperature -17 °C 0 °C 2 °C (1949)
Min Temperature -27 °C -17 °C -31 °C (1999)
Degree Days  
Heating Degree Days 73    
Moisture  
Dew Point -26 °C    
Average Humidity 73    
Maximum Humidity 79    
Minimum Humidity 63    
Precipitation  
Precipitation 0.00 mm - - ()
Sea Level Pressure  
Sea Level Pressure 1033 hPa    
Wind  
Wind Speed 0 km/h (NE)    
Max Wind Speed 6 km/h    
Max Gust Speed -    
Visibility 16 kilometers    
Events      
Averages and records for this station are not official NWS values.
T = Trace of Precipitation, MM = Missing Value Source: NWS Daily Summary

Daily Weather History Graph

Daily Weather History Graph

Search for Another Location

Airport:

Trip Planner

Search our weather history database for the weather conditions in past years. The results will help you decide how hot, cold, wet, or windy it might be!

Date:

Astronomy

Jan. 01, 2014 Rise Set
Actual Time 7:47 AM CST 4:31 PM CST
Civil Twilight 7:13 AM CST 5:05 PM CST
Nautical Twilight 6:35 AM CST 5:43 PM CST
Astronomical Twilight 5:59 AM CST 6:19 PM CST
Moon 7:34 AM CST 5:21 PM CST
Length of Visible Light 9h 52m
Length of Day
8h 43m
New Moon, 0% of the Moon is Illuminated
Jan 1
New Moon
Jan 7
First Quarter
Jan 15
Full
Jan 23
Last Quarter
Jan 30
New

Hourly Weather History & Observations

Time (CST) Temp. Windchill Dew Point Humidity Pressure Visibility Wind Dir Wind Speed Gust Speed Precip Events Conditions
12:53 AM -27.2 °C - -30.6 °C 74% 1032.5 hPa 16.1 km Calm Calm - N/A   Scattered Clouds
1:53 AM -26.1 °C - -30.0 °C 71% 1032.7 hPa 16.1 km Calm Calm - N/A   Overcast
2:53 AM -26.1 °C - -29.4 °C 75% 1032.7 hPa 16.1 km Calm Calm - N/A   Overcast
3:53 AM -26.7 °C - -30.0 °C 74% 1032.5 hPa 16.1 km Calm Calm - N/A   Mostly Cloudy
4:53 AM -27.2 °C - -30.6 °C 74% 1032.4 hPa 16.1 km Calm Calm - N/A   Overcast
5:53 AM -26.1 °C - -28.9 °C 78% 1033.3 hPa 16.1 km Calm Calm - N/A   Overcast
6:53 AM -25.0 °C - -27.8 °C 78% 1033.4 hPa 16.1 km Calm Calm - N/A   Overcast
7:53 AM -24.4 °C - -27.8 °C 74% 1034.4 hPa 16.1 km Calm Calm - N/A   Overcast
8:53 AM -23.9 °C - -26.7 °C 78% 1035.2 hPa 16.1 km Calm Calm - N/A   Overcast
9:53 AM -22.8 °C - -25.6 °C 79% 1035.7 hPa 16.1 km Calm Calm - N/A   Overcast
10:53 AM -21.1 °C - -24.4 °C 75% 1035.6 hPa 16.1 km Calm Calm - N/A   Overcast
11:53 AM -19.4 °C -24.0 °C -23.3 °C 72% 1034.5 hPa 16.1 km NE 5.6 km/h / 1.5 m/s - N/A   Overcast
12:53 PM -18.3 °C - -22.8 °C 69% 1033.6 hPa 16.1 km Calm Calm - N/A   Overcast
1:53 PM -17.2 °C - -22.2 °C 66% 1033.0 hPa 16.1 km Calm Calm - N/A   Overcast
2:53 PM -16.7 °C - -22.2 °C 63% 1032.7 hPa 16.1 km Calm Calm - N/A   Overcast
3:53 PM -16.7 °C - -22.2 °C 63% 1032.8 hPa 16.1 km Calm Calm - N/A   Overcast
4:53 PM -17.2 °C - -22.2 °C 66% 1033.0 hPa 16.1 km Calm Calm - N/A   Overcast
5:53 PM -17.8 °C - -22.8 °C 66% 1033.4 hPa 16.1 km Calm Calm - N/A   Overcast
6:53 PM -17.8 °C - -22.2 °C 69% 1033.6 hPa 16.1 km Calm Calm - N/A   Overcast
7:53 PM -18.3 °C - -22.2 °C 72% 1033.7 hPa 16.1 km Calm Calm - N/A   Overcast
8:53 PM -18.9 °C - -22.8 °C 72% 1033.1 hPa 16.1 km Calm Calm - N/A   Overcast
9:53 PM -20.6 °C - -23.9 °C 76% 1032.9 hPa 16.1 km Calm Calm - N/A   Mostly Cloudy
10:53 PM -22.8 °C - -25.6 °C 79% 1033.0 hPa 16.1 km Calm Calm - N/A   Clear
11:53 PM -22.8 °C - -25.6 °C 79% 1032.7 hPa 16.1 km Calm Calm - N/A   Mostly Cloudy